Bloomington, IN

6:21 AM EST on December 15, 2017 (GMT -0500)
Monroe County

Weather History for KBMG - January, 1999

Change the Weather History Date:

Tuesday, January 5, 1999

  Actual Average Record
Temperature  
Mean Temperature 3 °F 29 °F  
Max Temperature 21 °F 38 °F 62 °F (2007)
Min Temperature -13 °F 21 °F -13 °F (1999)
Degree Days  
Heating Degree Days 62 36  
Month to date heating degree days 180  
Since 1 July heating degree days 2253  
Cooling Degree Days 0 0  
Month to date cooling degree days 0  
Year to date cooling degree days 0  
Moisture  
Dew Point -4 °F    
Average Humidity 71    
Maximum Humidity 82    
Minimum Humidity 59    
Precipitation  
Precipitation 0.00 in 0.13 in 2.30 in (2005)
Month to date precipitation 0.67  
Year to date precipitation 0.67  
Sea Level Pressure  
Sea Level Pressure 30.38 in    
Wind  
Wind Speed 5 mph (South)    
Max Wind Speed 15 mph    
Max Gust Speed -    
Visibility 9 miles    
Events      
T = Trace of Precipitation, MM = Missing Value Source: NWS Daily Summary

Daily Weather History Graph

Daily Weather History Graph

Search for Another Location

Airport or City:

Trip Planner

Search our weather history database for the weather conditions in past years. The results will help you decide how hot, cold, wet, or windy it might be!

Date:

Astronomy

Jan. 05, 1999 Rise Set
Actual Time 8:06 AM EST 5:37 PM EST
Civil Twilight 7:36 AM EST 6:07 PM EST
Nautical Twilight 7:02 AM EST 6:40 PM EST
Astronomical Twilight 6:30 AM EST 7:13 PM EST
Moon 9:43 PM EST (1/5) 10:35 AM EST (1/5)
Length of Visible Light 10h 31m
Length of Day
9h 31m
Waning Gibbous, 85% of the Moon is Illuminated
Jan 5
Waning Gibbous
Jan 9
Last Quarter
Jan 17
New
Jan 24
First Quarter
Jan 31
Full

Hourly Weather History & Observations

Time (EST) Temp. Windchill Dew Point Humidity Pressure Visibility Wind Dir Wind Speed Gust Speed Precip Events Conditions
12:53 AM -7.1 °F -15.9 °F -11.9 °F 79% 30.47 in 10.0 mi West 3.5 mph - N/A   Clear
1:53 AM -7.1 °F -15.9 °F -11.9 °F 79% 30.47 in 10.0 mi West 3.5 mph - N/A   Clear
2:53 AM -9.9 °F - -14.1 °F 82% 30.48 in 10.0 mi Calm Calm - N/A   Clear
3:53 AM -9.9 °F - -14.1 °F 82% 30.48 in 10.0 mi Calm Calm - N/A   Clear
4:53 AM -9.9 °F - -14.1 °F 82% 30.48 in 9.0 mi Calm Calm - N/A   Clear
5:53 AM -11.9 °F - -17.0 °F 78% 30.48 in 8.0 mi Calm Calm - N/A   Clear
6:53 AM -11.9 °F - -17.0 °F 78% 30.48 in 9.0 mi Calm Calm - N/A   Clear
7:53 AM -13.0 °F - -18.0 °F 78% 30.48 in 9.0 mi Calm Calm - N/A   Clear
8:53 AM -11.9 °F - -16.1 °F 82% 30.48 in 6.0 mi Calm Calm - N/A   Clear
9:53 AM -6.0 °F - -11.0 °F 79% 30.49 in 6.0 mi Calm Calm - N/A   Haze
10:53 AM 3.0 °F -13.3 °F -5.1 °F 69% 30.48 in 10.0 mi SSW 11.5 mph - N/A   Clear
11:53 AM 6.1 °F -5.6 °F -4.0 °F 63% 30.47 in 10.0 mi South 6.9 mph - N/A   Clear
12:53 PM 10.0 °F -2.9 °F -0.9 °F 61% 30.43 in 10.0 mi South 9.2 mph - N/A   Clear
1:53 PM 12.0 °F -2.0 °F 1.0 °F 61% 30.38 in 10.0 mi South 11.5 mph - N/A   Clear
2:53 PM 14.0 °F 1.2 °F 1.9 °F 59% 30.36 in 10.0 mi SSW 10.4 mph - N/A   Clear
3:53 PM 15.1 °F 3.3 °F 3.0 °F 59% 30.34 in 10.0 mi South 9.2 mph - N/A   Clear
4:53 PM 15.1 °F 3.3 °F 5.0 °F 64% 30.32 in 10.0 mi South 9.2 mph - N/A   Clear
5:53 PM 15.1 °F 4.2 °F 6.1 °F 68% 30.30 in 10.0 mi SSE 8.1 mph - N/A   Mostly Cloudy
6:53 PM 16.0 °F 3.6 °F 7.0 °F 68% 30.28 in 10.0 mi SE 10.4 mph - N/A   Overcast
7:53 PM 17.1 °F 3.6 °F 8.1 °F 68% 30.25 in 10.0 mi SSE 12.7 mph - N/A   Overcast
8:53 PM 17.1 °F 5.8 °F 9.0 °F 71% 30.24 in 9.0 mi SSE 9.2 mph - 0.00 in   Overcast
9:53 PM 18.0 °F 6.9 °F 8.1 °F 65% 30.21 in 10.0 mi SSE 9.2 mph - 0.00 in   Overcast
10:53 PM 19.0 °F 6.8 °F 10.9 °F 71% 30.18 in 10.0 mi South 11.5 mph - N/A   Overcast
11:53 PM 21.0 °F 7.6 °F 10.9 °F 65% 30.16 in 10.0 mi SSW 15.0 mph - N/A   Overcast